TimeCDT,TemperatureF,Dew PointF,Humidity,Sea Level PressureIn,VisibilityMPH,Wind Direction,Wind SpeedMPH,Gust SpeedMPH,PrecipitationIn,Events,Conditions,WindDirDegrees,DateUTC
12:52 AM,66.9,61.0,81,29.85,10.0,SSE,16.1,-,N/A,,Clear,160,2012-10-22 05:52:00
1:52 AM,68.0,62.1,81,29.85,10.0,SSE,16.1,-,N/A,,Clear,160,2012-10-22 06:52:00
2:52 AM,66.9,62.1,84,29.84,10.0,South,15.0,-,N/A,,Clear,170,2012-10-22 07:52:00
3:52 AM,66.9,62.1,84,29.83,10.0,South,12.7,-,N/A,,Clear,170,2012-10-22 08:52:00
4:52 AM,66.0,62.1,87,29.83,10.0,South,15.0,-,N/A,,Clear,170,2012-10-22 09:52:00
8:52 AM,68.0,62.6,83,29.92,10.0,South,15.0,-,N/A,,Clear,170,2012-10-22 13:52:00
9:52 AM,72.0,64.0,76,29.89,10.0,South,17.3,-,N/A,,Clear,180,2012-10-22 14:52:00
10:52 AM,75.9,64.0,67,29.89,10.0,South,16.1,-,N/A,,Clear,190,2012-10-22 15:52:00
11:52 AM,77.0,63.0,62,29.88,10.0,SSW,20.7,-,N/A,,Clear,200,2012-10-22 16:52:00
12:52 PM,79.0,64.0,60,29.88,10.0,South,19.6,-,N/A,,Partly Cloudy,190,2012-10-22 17:52:00
1:52 PM,77.0,63.0,62,29.87,10.0,SSW,17.3,-,N/A,,Clear,200,2012-10-22 18:52:00
2:52 PM,77.0,62.6,61,29.90,10.0,SSW,20.7,29.9,N/A,,Mostly Cloudy,210,2012-10-22 19:52:00
3:52 PM,73.9,63.0,68,29.89,10.0,SSW,17.3,25.3,N/A,,Overcast,210,2012-10-22 20:52:00
4:23 PM,73.4,62.6,69,29.93,10.0,SSW,18.4,28.8,N/A,,Overcast,210,2012-10-22 21:23:00
4:52 PM,73.0,63.0,71,29.89,10.0,SSW,18.4,25.3,N/A,,Overcast,200,2012-10-22 21:52:00
5:12 PM,73.4,62.6,69,29.92,10.0,South,13.8,23.0,N/A,,Partly Cloudy,190,2012-10-22 22:12:00
5:52 PM,72.0,63.0,73,29.89,10.0,South,12.7,-,N/A,,Clear,180,2012-10-22 22:52:00
6:52 PM,71.1,63.0,75,29.90,10.0,South,11.5,-,N/A,,Clear,180,2012-10-22 23:52:00
7:52 PM,71.1,63.0,75,29.91,10.0,South,11.5,-,N/A,,Mostly Cloudy,170,2012-10-23 00:52:00
8:52 PM,70.0,63.0,78,29.91,10.0,SSE,11.5,-,0.00,Rain,Light Rain,160,2012-10-23 01:52:00
9:52 PM,71.1,63.0,75,29.89,10.0,SSE,15.0,-,0.00,,Clear,150,2012-10-23 02:52:00
10:46 PM,69.8,62.6,78,29.94,10.0,South,15.0,-,N/A,Thunderstorm,Thunderstorm,170,2012-10-23 03:46:00
11:52 PM,66.9,63.0,87,29.93,10.0,South,8.1,-,0.00,Thunderstorm,Thunderstorm,180,2012-10-23 04:52:00